CW1509 Weather Reports


Display with metric or nautical units.
time (UTC)temp
F
wind
direction
speed
MPH
gust
MPH
rain 1hr
in
rain 24hr
in
rain mn
in
humidity
%
barometer
mb
20260903043412 82 262 2.0 3.0 0.00 0.00 0.00 82 1014.1
20260903042927 82 190 1.0 3.0 0.00 0.00 0.00 82 1014.0
20260903042446 82 232 2.0 3.0 0.00 0.00 0.00 82 1014.0
20260903041925 82 241 0.0 0.0 0.00 0.00 0.00 82 1014.0
20260903041443 82 205 0.0 0.0 0.00 0.00 0.00 81 1014.1
20260903040922 82 220 0.0 0.0 0.00 0.00 0.00 81 1014.0
20260903040421 82 207 0.0 0.0 0.00 0.00 0.00 81 1014.0
20260903035921 82 228 0.0 0.0 0.00 0.00 0.00 80 1014.0
20260903035420 83 228 0.0 0.0 0.00 0.00 0.00 80 1014.0
20260903034920 83 228 0.0 0.0 0.00 0.00 0.00 80 1014.1
20260903034419 83 228 0.0 0.0 0.00 0.00 0.00 80 1014.0
20260903033918 83 228 0.0 0.0 0.00 0.00 0.00 80 1014.1
20260903033418 83 228 0.0 0.0 0.00 0.00 0.00 79 1014.0
20260903032917 83 228 0.0 0.0 0.00 0.00 0.00 79 1014.0
20260903032419 83 228 0.0 0.0 0.00 0.00 0.00 79 1014.0
20260903031918 83 228 0.0 0.0 0.00 0.00 0.00 79 1013.9
20260903031419 83 228 0.0 0.0 0.00 0.00 0.00 79 1014.0
20260903030919 83 228 0.0 0.0 0.00 0.00 0.00 79 1014.0
20260903030418 83 228 0.0 0.0 0.00 0.00 0.00 79 1014.0
20260903025918 84 228 0.0 0.0 0.00 0.00 0.00 79 1013.9
20260903025417 84 228 0.0 3.0 0.00 0.00 0.00 79 1013.9
20260903024915 84 186 1.0 3.0 0.00 0.00 0.00 78 1014.1
20260903024415 84 215 0.0 2.0 0.00 0.00 0.00 78 1014.1
20260903023914 84 215 1.0 2.0 0.00 0.00 0.00 78 1014.1
20260903023414 84 201 0.0 2.0 0.00 0.00 0.00 78 1014.1
20260903022913 84 223 0.0 2.0 0.00 0.00 0.00 78 1014.1
20260903022432 84 223 1.0 2.0 0.00 0.00 0.00 78 1014.2
20260903021931 84 238 1.0 4.0 0.00 0.00 0.00 78 1014.1
20260903021427 84 197 2.0 4.0 0.00 0.00 0.00 78 1014.1
20260903020928 84 243 2.0 4.0 0.00 0.00 0.00 78 1014.1
20260903020428 85 173 1.0 3.0 0.00 0.00 0.00 78 1014.1
20260903015927 85 252 2.0 4.0 0.00 0.00 0.00 78 1014.0
20260903015425 85 206 2.0 4.0 0.00 0.00 0.00 78 1013.9
20260903014944 85 244 1.0 3.0 0.00 0.00 0.00 78 1013.9
20260903014424 85 242 1.0 3.0 0.00 0.00 0.00 78 1013.8
20260903013944 85 234 1.0 5.0 0.00 0.00 0.00 78 1013.8
20260903013422 85 207 2.0 5.0 0.00 0.00 0.00 78 1013.8
20260903012922 85 270 1.0 3.0 0.00 0.00 0.00 78 1013.7
20260903012421 85 249 1.0 3.0 0.00 0.00 0.00 78 1013.7
20260903011921 86 202 2.0 3.0 0.00 0.00 0.00 78 1013.6
20260903011421 86 238 1.0 4.0 0.00 0.00 0.00 77 1013.5
20260903010922 86 246 2.0 4.0 0.00 0.00 0.00 77 1013.4
20260903010423 86 217 1.0 3.0 0.00 0.00 0.00 77 1013.4
20260903005943 86 217 1.0 3.0 0.00 0.00 0.00 76 1013.3
20260903005421 86 241 1.0 3.0 0.00 0.00 0.00 76 1013.4
20260903004920 87 192 1.0 3.0 0.00 0.00 0.00 75 1013.3
20260903004440 87 230 1.0 3.0 0.00 0.00 0.00 75 1013.3
20260903003919 87 242 1.0 4.0 0.00 0.00 0.00 75 1013.3
20260903003419 87 225 0.0 4.0 0.00 0.00 0.00 74 1013.2
20260903002926 87 206 1.0 3.0 0.00 0.00 0.00 74 1013.3
20260903002423 88 241 1.0 3.0 0.00 0.00 0.00 73 1013.4
20260903001945 88 240 1.0 3.0 0.00 0.00 0.00 73 1013.4
20260903001421 88 227 2.0 3.0 0.00 0.00 0.00 72 1013.4
20260903000921 88 215 1.0 3.0 0.00 0.00 0.00 72 1013.4
20260903000421 89 240 1.0 3.0 0.00 0.00 0.00 71 1013.4
20260902235921 89 240 1.0 4.0 0.00 0.00 0.00 71 1013.5
20260902235419 89 238 2.0 4.0 0.00 0.00 0.00 70 1013.5
20260902234920 89 227 1.0 3.0 0.00 0.00 0.00 70 1013.5
20260902234420 89 221 1.0 3.0 0.00 0.00 0.00 69 1013.4
20260902233922 90 239 1.0 3.0 0.00 0.00 0.00 68 1013.4
20260902233426 90 192 2.0 3.0 0.00 0.00 0.00 67 1013.4
20260902232930 90 250 1.0 2.0 0.00 0.00 0.00 67 1013.4
20260902232412 90 192 1.0 2.0 0.00 0.00 0.00 66 1013.4
20260902231913 90 237 1.0 3.0 0.00 0.00 0.00 65 1013.4
20260902231434 90 232 2.0 3.0 0.00 0.00 0.00 64 1013.4
20260902230932 91 242 1.0 4.0 0.00 0.00 0.00 63 1013.4
20260902230431 91 218 2.0 4.0 0.00 0.00 0.00 62 1013.5
20260902225931 91 232 1.0 4.0 0.00 0.00 0.00 62 1013.5
20260902225429 91 212 2.0 6.0 0.00 0.00 0.00 62 1013.5
20260902224928 91 232 3.0 6.0 0.00 0.00 0.00 62 1013.6
20260902224444 91 245 3.0 6.0 0.00 0.00 0.00 62 1013.4
20260902223923 91 260 2.0 4.0 0.00 0.00 0.00 63 1013.4
20260902223421 91 259 3.0 5.0 0.00 0.00 0.00 63 1013.5
20260902222940 92 190 2.0 5.0 0.00 0.00 0.00 63 1013.5
20260902222418 92 241 2.0 4.0 0.00 0.00 0.00 63 1013.6
20260902221918 92 182 2.0 4.0 0.00 0.00 0.00 63 1013.5
20260902221417 92 250 2.0 5.0 0.00 0.00 0.00 62 1013.5
20260902220918 92 167 2.0 5.0 0.00 0.00 0.00 62 1013.6
20260902220418 92 252 2.0 5.0 0.00 0.00 0.00 61 1013.5
20260902215919 92 199 2.0 6.0 0.00 0.00 0.00 62 1013.5
20260902215419 92 246 2.0 6.0 0.00 0.00 0.00 61 1013.5
20260902214940 92 248 2.0 8.0 0.00 0.00 0.00 60 1013.5
20260902214418 92 252 3.0 8.0 0.00 0.00 0.00 59 1013.5
20260902213936 92 215 3.0 5.0 0.00 0.00 0.00 61 1013.6
20260902213414 92 157 3.0 5.0 0.00 0.00 0.00 61 1013.7
20260902212914 92 173 2.0 7.0 0.00 0.00 0.00 61 1013.6
20260902212434 92 248 2.0 7.0 0.00 0.00 0.00 60 1013.6
20260902211933 92 217 2.0 7.0 0.00 0.00 0.00 62 1013.7
20260902211452 92 148 3.0 8.0 0.00 0.00 0.00 62 1013.7
20260902210949 92 190 2.0 5.0 0.00 0.00 0.00 63 1013.8
20260902210428 92 236 3.0 5.0 0.00 0.00 0.00 63 1013.9
20260902205418 92 248 2.0 6.0 0.00 0.00 0.00 61 1014.0
20260902204931 92 269 2.0 6.0 0.00 0.00 0.00 61 1014.1
20260902204441 92 210 3.0 7.0 0.00 0.00 0.00 60 1014.1
20260902203914 92 217 3.0 7.0 0.00 0.00 0.00 60 1014.1
20260902203415 92 179 3.0 7.0 0.00 0.00 0.00 61 1014.1
20260902202914 92 154 2.0 6.0 0.00 0.00 0.00 64 1014.3
20260902202414 92 263 2.0 4.0 0.00 0.00 0.00 64 1014.3
20260902201914 92 202 1.0 4.0 0.00 0.00 0.00 64 1014.3
20260902201434 92 197 2.0 4.0 0.00 0.00 0.00 63 1014.3
20260902200931 92 249 3.0 5.0 0.00 0.00 0.00 63 1014.4
20260902200449 92 250 1.0 5.0 0.00 0.00 0.00 63 1014.5
20260902195948 92 269 1.0 6.0 0.00 0.00 0.00 62 1014.5
20260902195427 92 213 3.0 7.0 0.00 0.00 0.00 64 1014.6
20260902194927 92 202 3.0 7.0 0.00 0.00 0.00 64 1014.7
20260902194428 91 184 2.0 6.0 0.00 0.00 0.00 64 1014.7
20260902193925 91 169 3.0 5.0 0.00 0.00 0.00 65 1014.7
20260902193425 91 190 2.0 4.0 0.00 0.00 0.00 65 1014.8
20260902192925 91 184 1.0 5.0 0.00 0.00 0.00 65 1014.9
20260902192443 91 200 1.0 5.0 0.00 0.00 0.00 65 1015.0
20260902191921 91 214 1.0 5.0 0.00 0.00 0.00 63 1015.0
20260902191419 91 203 2.0 6.0 0.00 0.00 0.00 64 1015.0
20260902190919 91 221 2.0 6.0 0.00 0.00 0.00 64 1015.0
20260902190419 91 246 2.0 4.0 0.00 0.00 0.00 64 1015.0
20260902185919 91 215 2.0 4.0 0.00 0.00 0.00 65 1015.0
20260902185416 91 192 1.0 5.0 0.00 0.00 0.00 65 1015.0
20260902184915 91 216 2.0 5.0 0.00 0.00 0.00 64 1015.0
20260902184416 91 244 2.0 4.0 0.00 0.00 0.00 65 1015.1
20260902183915 91 225 1.0 4.0 0.00 0.00 0.00 64 1015.0
20260902182929 91 204 3.0 6.0 0.00 0.00 0.00 63 1015.1
20260902182428 91 190 2.0 7.0 0.00 0.00 0.00 63 1015.1
20260902181928 91 267 0.0 10.0 0.00 0.00 0.00 63 1015.1
20260902181428 91 273 3.0 10.0 0.00 0.00 0.00 62 1015.2
20260902180926 91 211 1.0 5.0 0.00 0.00 0.00 63 1015.1
20260902180426 91 167 3.0 5.0 0.00 0.00 0.00 62 1015.2
20260902175947 91 236 2.0 5.0 0.00 0.00 0.00 63 1015.1
20260902175425 91 267 3.0 6.0 0.00 0.00 0.00 62 1015.2
20260902174923 91 315 0.0 4.0 0.00 0.00 0.00 63 1015.2
20260902174423 91 203 1.0 6.0 0.00 0.00 0.00 63 1015.1
20260902173923 91 223 1.0 6.0 0.00 0.00 0.00 64 1015.1
20260902173421 91 207 0.0 5.0 0.00 0.00 0.00 65 1015.2
20260902172943 90 180 1.0 3.0 0.00 0.00 0.00 65 1015.1
20260902172421 90 245 1.0 5.0 0.00 0.00 0.00 65 1015.3
20260902171921 90 176 2.0 6.0 0.00 0.00 0.00 65 1015.5
20260902171418 90 163 1.0 3.0 0.00 0.00 0.00 65 1015.4
20260902170918 90 246 2.0 3.0 0.00 0.00 0.00 66 1015.5
20260902170418 90 166 1.0 3.0 0.00 0.00 0.00 67 1015.5
20260902165916 89 240 2.0 3.0 0.00 0.00 0.00 67 1015.6
20260902165415 89 201 1.0 2.0 0.00 0.00 0.00 69 1015.6
20260902164913 88 161 0.0 4.0 0.00 0.00 0.00 69 1015.7
20260902164431 88 51 1.0 4.0 0.00 0.00 0.00 68 1015.8
20260902163931 88 225 2.0 4.0 0.00 0.00 0.00 70 1015.8
20260902163430 87 182 0.0 4.0 0.00 0.00 0.00 71 1015.9
20260902162929 87 223 1.0 4.0 0.00 0.00 0.00 72 1015.9
20260902162429 86 238 1.0 3.0 0.00 0.00 0.00 71 1015.9
20260902161928 86 193 0.0 3.0 0.00 0.00 0.00 72 1015.9
20260902161427 86 248 1.0 3.0 0.00 0.00 0.00 73 1016.0
20260902160927 86 322 0.0 1.0 0.00 0.00 0.00 73 1015.9
20260902160425 86 236 0.0 1.0 0.00 0.00 0.00 73 1015.8
20260902155925 86 236 0.0 3.0 0.00 0.00 0.00 73 1015.7
20260902155425 86 186 1.0 3.0 0.00 0.00 0.00 73 1015.7
20260902154924 85 19 0.0 5.0 0.00 0.00 0.00 74 1015.8
20260902154425 85 315 0.0 5.0 0.00 0.00 0.00 73 1015.7
20260902153923 85 267 2.0 5.0 0.00 0.00 0.00 73 1015.6
20260902153421 84 177 1.0 3.0 0.00 0.00 0.00 74 1015.6
20260902152921 84 263 2.0 4.0 0.00 0.00 0.00 74 1015.5
20260902152441 84 209 2.0 4.0 0.00 0.00 0.00 75 1015.5
20260902151938 84 178 2.0 4.0 0.00 0.00 0.00 75 1015.5
20260902151439 83 200 2.0 4.0 0.00 0.00 0.00 75 1015.5
20260902150916 83 257 2.0 7.0 0.00 0.00 0.00 75 1015.5
20260902150415 83 247 2.0 7.0 0.00 0.00 0.00 75 1015.5
20260902145914 82 236 2.0 6.0 0.00 0.00 0.00 77 1015.4
20260902145434 82 207 3.0 6.0 0.00 0.00 0.00 77 1015.5
20260902144932 82 258 1.0 3.0 0.00 0.00 0.00 77 1015.4
20260902144430 82 260 1.0 4.0 0.00 0.00 0.00 78 1015.4
20260902143949 81 185 1.0 4.0 0.00 0.00 0.00 78 1015.5
20260902143428 81 245 1.0 4.0 0.00 0.00 0.00 79 1015.5
20260902142943 81 250 1.0 4.0 0.00 0.00 0.00 79 1015.6
20260902142422 81 184 2.0 4.0 0.00 0.00 0.00 78 1015.5
20260902141943 81 259 2.0 3.0 0.00 0.00 0.00 79 1015.5
20260902141423 80 246 1.0 3.0 0.00 0.00 0.00 79 1015.6
20260902140943 80 237 2.0 5.0 0.00 0.00 0.00 79 1015.6
20260902140421 80 171 2.0 5.0 0.00 0.00 0.00 79 1015.7
20260902135940 80 237 1.0 3.0 0.00 0.00 0.00 80 1015.6
20260902135421 80 208 0.0 2.0 0.00 0.00 0.00 80 1015.7
20260902134919 79 272 1.0 4.0 0.00 0.00 0.00 80 1015.6
20260902134420 79 261 1.0 4.0 0.00 0.00 0.00 80 1015.7
20260902133921 79 240 1.0 5.0 0.00 0.00 0.00 81 1015.8
20260902133420 79 196 2.0 5.0 0.00 0.00 0.00 81 1015.6
20260902132921 79 208 1.0 3.0 0.00 0.00 0.00 81 1015.6
20260902132420 78 155 2.0 4.0 0.00 0.00 0.00 81 1015.7
20260902131920 78 247 0.0 2.0 0.00 0.00 0.00 82 1015.8
20260902131420 78 228 1.0 3.0 0.00 0.00 0.00 82 1015.8
20260902130920 78 250 1.0 3.0 0.00 0.00 0.00 83 1015.8
20260902130420 78 239 2.0 4.0 0.00 0.00 0.00 83 1015.6
20260902125920 77 237 2.0 3.0 0.00 0.00 0.00 84 1015.7
20260902125421 77 246 2.0 3.0 0.00 0.00 0.00 84 1015.6
20260902124922 77 196 0.0 0.0 0.00 0.00 0.00 85 1015.7
20260902124421 77 196 0.0 2.0 0.00 0.00 0.00 86 1015.7
20260902123920 76 211 0.0 2.0 0.00 0.00 0.00 86 1015.7
20260902123420 76 236 1.0 3.0 0.00 0.00 0.00 87 1015.7
20260902122941 76 178 1.0 4.0 0.00 0.00 0.00 88 1015.8
20260902122442 76 240 0.0 2.0 0.00 0.00 0.00 88 1015.9
20260902121922 75 241 1.0 2.0 0.00 0.00 0.00 88 1015.9
20260902121421 75 186 1.0 4.0 0.00 0.00 0.00 89 1016.0
20260902120921 75 203 1.0 2.0 0.00 0.00 0.00 89 1016.0
20260902120421 75 227 1.0 3.0 0.00 0.00 0.00 89 1015.8
20260902115919 75 200 1.0 3.0 0.00 0.00 0.00 89 1015.9
20260902115418 75 227 1.0 2.0 0.00 0.00 0.00 89 1015.9
20260902114918 75 190 1.0 3.0 0.00 0.00 0.00 89 1015.8
20260902114419 75 243 1.0 3.0 0.00 0.00 0.00 89 1015.8
20260902113918 75 194 0.0 1.0 0.00 0.00 0.00 89 1015.8
20260902113419 75 217 0.0 0.0 0.00 0.00 0.00 89 1015.6
20260902112916 75 217 0.0 0.0 0.00 0.00 0.00 89 1015.7
20260902112415 75 217 0.0 0.0 0.00 0.00 0.00 89 1015.6
20260902111913 75 217 0.0 0.0 0.00 0.00 0.00 89 1015.7
20260902111413 75 217 0.0 0.0 0.00 0.00 0.00 89 1015.6
20260902110912 75 217 0.0 0.0 0.00 0.00 0.00 89 1015.7
20260902110431 75 217 0.0 0.0 0.00 0.00 0.00 89 1015.8
20260902105930 75 217 0.0 0.0 0.00 0.00 0.00 88 1015.8
20260902105428 75 217 0.0 0.0 0.00 0.00 0.00 88 1015.6
20260902104948 75 217 0.0 0.0 0.00 0.00 0.00 88 1015.5
20260902104446 75 217 0.0 0.0 0.00 0.00 0.00 88 1015.6
20260902103925 76 217 0.0 0.0 0.00 0.00 0.00 89 1015.5
20260902103424 76 217 0.0 0.0 0.00 0.00 0.00 89 1015.6
20260902102923 76 217 0.0 0.0 0.00 0.00 0.00 89 1015.6
20260902102423 76 217 0.0 0.0 0.00 0.00 0.00 89 1015.7
20260902101923 76 217 0.0 0.0 0.00 0.00 0.00 89 1015.6
20260902101424 76 217 0.0 0.0 0.00 0.00 0.00 89 1015.6
20260902100945 76 217 0.0 0.0 0.00 0.00 0.00 89 1015.6
20260902100426 76 217 0.0 0.0 0.00 0.00 0.00 89 1015.5
20260902095945 76 217 0.0 0.0 0.00 0.00 0.00 89 1015.5
20260902095425 76 217 0.0 0.0 0.00 0.00 0.00 89 1015.6
20260902094924 76 217 0.0 0.0 0.00 0.00 0.00 89 1015.6
20260902094422 76 217 0.0 0.0 0.00 0.00 0.00 89 1015.6
20260902093920 76 217 0.0 2.0 0.00 0.00 0.00 89 1015.6
20260902093422 76 217 1.0 2.0 0.00 0.00 0.00 89 1015.5
20260902092937 76 217 0.0 2.0 0.00 0.00 0.00 88 1015.5
20260902092416 76 217 0.0 2.0 0.00 0.00 0.00 88 1015.6
20260902091916 76 217 0.0 2.0 0.00 0.00 0.00 88 1015.6
20260902091416 76 217 1.0 3.0 0.00 0.00 0.00 89 1015.6
20260902090917 76 217 1.0 3.0 0.00 0.00 0.00 88 1015.5
20260902090417 76 232 1.0 3.0 0.00 0.00 0.00 88 1015.3
20260902085916 76 194 1.0 3.0 0.00 0.00 0.00 88 1015.3
20260902085416 77 199 0.0 1.0 0.00 0.00 0.00 88 1015.2
20260902084916 77 199 0.0 1.0 0.00 0.00 0.00 87 1015.2
20260902084416 77 199 0.0 0.0 0.00 0.00 0.00 87 1015.2
20260902083915 77 219 0.0 2.0 0.00 0.00 0.00 87 1015.2
20260902083414 77 219 1.0 2.0 0.00 0.00 0.00 87 1015.1
20260902082916 77 194 0.0 2.0 0.00 0.00 0.00 87 1015.1
20260902082416 77 231 1.0 2.0 0.00 0.00 0.00 87 1015.1
20260902081916 77 223 0.0 2.0 0.00 0.00 0.00 87 1015.1
20260902081415 77 232 1.0 2.0 0.00 0.00 0.00 87 1015.1
20260902080916 77 205 0.0 1.0 0.00 0.00 0.00 87 1015.1
20260902080416 77 205 0.0 3.0 0.00 0.00 0.00 87 1015.1
20260902075915 77 205 1.0 3.0 0.00 0.00 0.00 86 1015.0
20260902075415 77 240 1.0 3.0 0.00 0.00 0.00 86 1015.2
20260902074915 77 245 0.0 2.0 0.00 0.00 0.00 86 1015.3
20260902074415 77 214 0.0 2.0 0.00 0.00 0.00 86 1015.3
20260902073915 77 182 0.0 2.0 0.00 0.00 0.00 86 1015.2
20260902073414 78 205 1.0 2.0 0.00 0.00 0.00 86 1015.2
20260902072934 78 219 1.0 2.0 0.00 0.00 0.00 86 1015.2
20260902072432 78 240 0.0 0.0 0.00 0.00 0.00 86 1015.2
20260902071931 78 197 0.0 0.0 0.00 0.00 0.00 85 1015.1
20260902071428 78 197 0.0 0.0 0.00 0.00 0.00 85 1015.2
20260902070927 78 239 0.0 0.0 0.00 0.00 0.00 85 1015.2
20260902070428 78 239 0.0 0.0 0.00 0.00 0.00 85 1015.2
20260902065928 78 239 0.0 0.0 0.00 0.00 0.00 85 1015.2
20260902065447 78 219 0.0 0.0 0.00 0.00 0.00 84 1015.2
20260902064925 79 219 0.0 0.0 0.00 0.00 0.00 84 1015.1
20260902064425 79 238 0.0 0.0 0.00 0.00 0.00 84 1015.1
20260902063923 79 199 0.0 1.0 0.00 0.00 0.00 84 1015.0
20260902063423 79 246 0.0 1.0 0.00 0.00 0.00 84 1015.0
20260902062921 79 219 0.0 1.0 0.00 0.00 0.00 84 1015.1
20260902062421 79 219 0.0 3.0 0.00 0.00 0.00 84 1015.1
20260902061921 79 209 0.0 3.0 0.00 0.00 0.00 83 1015.1
20260902061507 80 243 0.0 0.0 0.00 0.00 0.00 83 1015.1
20260902060925 80 233 0.0 0.0 0.00 0.00 0.00 83 1015.1
20260902060423 80 233 0.0 0.0 0.00 0.00 0.00 83 1015.1
20260902055923 80 233 0.0 0.0 0.00 0.00 0.00 83 1015.0
20260902055443 80 233 0.0 1.0 0.00 0.00 0.00 83 1015.0
20260902054920 80 233 0.0 2.0 0.00 0.00 0.00 83 1015.0
20260902054420 80 242 0.0 2.0 0.00 0.00 0.00 82 1015.0
20260902053920 80 242 1.0 2.0 0.00 0.00 0.00 82 1015.0
20260902053441 81 225 0.0 2.0 0.00 0.00 0.00 82 1015.0
20260902052920 81 219 0.0 2.0 0.00 0.00 0.00 82 1015.1
20260902052439 81 244 0.0 3.0 0.00 0.00 0.00 82 1015.0
20260902051917 81 246 1.0 3.0 0.00 0.00 0.00 82 1015.0
20260902051415 81 240 1.0 3.0 0.00 0.00 0.00 82 1015.0
20260902050934 81 238 2.0 3.0 0.00 0.00 0.00 82 1015.0
20260902050431 81 221 1.0 3.0 0.00 0.00 0.00 82 1015.0
20260902045930 81 236 1.0 4.0 0.00 0.00 0.00 82 1015.1
20260902045427 82 199 2.0 4.0 0.00 0.00 0.00 82 1015.1
20260902044927 82 255 1.0 2.0 0.00 0.00 0.00 82 1015.1
20260902044426 82 244 0.0 3.0 0.00 0.00 0.00 82 1015.1
20260902043926 82 238 1.0 4.0 0.00 0.00 0.00 82 1015.1